Regional Weather Roundup
Issued by NWS

Home | Current Version | Previous Version | Text Only | Print | Product List | Glossary On
Versions: 1 2 3 4 5 6 7 8 9 10 11 12 13 14 15 16 17 18 19 20 21 22 23 24 25 26 27 28 29 30 31 32 33 34 35 36 37 38 39 40 41 42 43 44 45 46 47 48 49 50
000
ASUS43 KMKX 011500
RWRWI

WISCONSIN REGIONAL WEATHER ROUNDUP
NATIONAL WEATHER SERVICE MILWAUKEE/SULLIVAN WI
900 AM CST SUN FEB 01 2015

NOTE: "FAIR" INDICATES FEW OR NO CLOUDS BELOW 12,000 FEET WITH NO
SIGNIFICANT WEATHER AND/OR OBSTRUCTIONS TO VISIBILITY.

WIZ001-002-006>008-014>016-023>028-011600-
NORTHWEST WISCONSIN

CITY           SKY/WX    TMP DP  RH WIND       PRES   REMARKS
SUPERIOR ARPT  CLOUDY     8   3  81 NE12G17   30.39R WCI  -7
ASHLAND        LGT SNOW   9   4  80 N16G24    30.36R WCI  -8
HAYWARD        CLOUDY     9  -1  64 NE10      30.29R WCI  -5
SIREN          CLOUDY    10   1  68 NE9       30.31R WCI  -4
CUMBERLAND     CLOUDY     9   0  66 NE12G17   30.25R WCI  -6
RICE LAKE      CLOUDY     9   1  68 NE14G20   30.28R WCI  -7
CHETEK         CLOUDY     9   1  69 MISG      30.26R
LADYSMITH      CLOUDY     9   1  70 NE12      30.26R WCI  -6
EAU CLAIRE     CLOUDY    11   2  67 NE16G24   30.22S WCI  -6
MENOMONIE      CLOUDY    12   3  66 N13       30.23S WCI  -2
NEW RICHMOND   CLOUDY    10   2  68 NE13G21   30.25R WCI  -5
OSCEOLA        CLOUDY    12   2  65 NE14      30.30R WCI  -4
$$

WIZ003>005-009-010-017-018-011600-
NORTH CENTRAL WISCONSIN

CITY           SKY/WX    TMP DP  RH WIND       PRES   REMARKS
MANITOWISH WTR CLOUDY     4  -2  75 NE8       30.25R WCI  -9
ARBOR VITAE    CLOUDY     6   1  78 NE7       30.23R WCI  -6
WOODRUFF       CLOUDY     6   1  78 NE7       30.23R WCI  -6
RHINELANDER    CLOUDY     6  -2  69 NE12      30.21R WCI  -9
EAGLE RIVER    CLOUDY     5  -2  74 NE9       30.22S WCI  -9
LAND O LAKES   CLOUDY     4   0  83 NE5       30.25R WCI  -5
PHILLIPS       CLOUDY     5  -2  74 NE10      30.23R WCI -10
TOMAHAWK       CLOUDY     7   0  72 CALM      30.23R
MEDFORD        CLOUDY     8   1  73 NE17      30.17F WCI -11
MERRILL        CLOUDY     9   2  74 NE10      30.20S WCI  -5
$$

WIZ029-030-035-036-043>047-011600-
CENTRAL WISCONSIN

CITY           SKY/WX    TMP DP  RH WIND       PRES   REMARKS
WAUSAU         CLOUDY    10   1  67 NE14G22   30.17F WCI  -6
MOSINEE        CLOUDY    10   3  72 NE14G23   30.17S WCI  -5
MARSHFIELD     CLOUDY    11   3  70 NE15      30.16F WCI  -5
STEVENS POINT  LGT SNOW   9   5  82 NE14      30.17F WCI  -7
WAUPACA        CLOUDY    14   7  72 NE12G17   30.18F HAZE    WCI   1
WAUTOMA        MIX PCPN  12   9  85 NE15      30.17S WCI  -4
WISC RAPIDS    LGT SNOW  11   5  77 NE10G20   30.18S VSB 1   WCI  -3
CAMP DOUGLAS   NOT AVBL
$$

WIZ011>013-019>022-031-037>040-048>050-011600-
NORTHEAST WISCONSIN

CITY           SKY/WX    TMP DP  RH WIND       PRES   REMARKS
ANTIGO         CLOUDY     8   2  78 NE18G24   30.18S WCI -11
SHAWANO        CLOUDY    14   6  70 NE13G20   30.24R WCI  -1
OCONTO         CLOUDY    10   3  71 CALM      30.27R
STURGEON BAY   CLOUDY    10   5  79 N14       30.26R WCI  -5
GREEN BAY      LGT SNOW  11   6  81 NE32G38   30.22R WCI -12
MANITOWOC      LGT SNOW  19  16  86 NE13G20   30.18S FOG     WCI   7
APPLETON       LGT SNOW  12   7  79 NE17G30   30.17S WCI  -5
CLINTONVILLE   CLOUDY    12   5  73 NE16G23   30.22R WCI  -4
OSHKOSH        LGT SNOW  13   8  81 NE22G31   30.16R VSB 3/4 WCI  -6
$$

WIZ032>034-041-042-053>061-011600-
SOUTHWEST WISCONSIN

CITY           SKY/WX    TMP DP  RH WIND       PRES   REMARKS
LA CROSSE      LGT SNOW  16  10  77 N9        30.14S WCI   4
SPARTA         LGT SNOW  14   9  82 NE12G17   30.15S WCI   0
VIROQUA        CLOUDY    13  10  87 NE17      30.04F VSB 3/4 WCI  -4
BOSCOBEL       HVY SNOW  17  12  80 NE15G24   30.05F VSB 1/4 WCI   2
PRAIRIE DU CHI LGT SNOW  18  13  82 NE6       30.04S VSB 3/4 WCI   9
PLATTEVILLE    CLOUDY    18  15  89 NE26G37   29.93F VSB 1/2 WCI   0
$$

WIZ056-057-062-063-064-067-068-011600-
SOUTH CENTRAL WISCONSIN

CITY           SKY/WX    TMP DP  RH WIND       PRES   REMARKS
REEDSBURG      LGT SNOW  13  10  85 NE14      30.09F WCI  -2
BARABOO/DELLS  LGT SNOW  13   9  85 NE14      30.09S VSB 1   WCI  -2
LONE ROCK      NOT AVBL
MINERAL POINT  LGT SNOW  19  16  86 NE22G28   29.97F VSB 1   WCI   3
MADISON        SNOW      16  11  80 NE20      30.04F VSB 1/2 WCI  -1
MIDDLETON      CLOUDY    17  13  84 NE20G26   30.04F VSB 1   WCI   1
WATERTOWN      LGT SNOW  21  19  90 NE18G26   30.04F WCI   6
MONROE         LGT SNOW  19  19 100 NE21G31   29.95F WCI   3
JANESVILLE     CLOUDY    25  23  93 NE20G25   29.98F VSB 1   WCI  11
$$

WIZ051-052-058>065-066-070>072-011600-
SOUTHEAST WISCONSIN

CITY           SKY/WX    TMP DP  RH WIND       PRES   REMARKS
MILWAUKEE      SNOW      23  19  85 NE25G33   30.05F VSB 1/4 WCI   7
WAUKESHA       LGT SNOW  21  19  93 NE12G23   30.04F VSB 1   WCI   9
MILWAUKEE/TIMM SNOW      21  19  93 NE17G25   30.07S VSB 1/2 WCI   7
RACINE         SNOW      24  20  84 NE23G31   30.03F VSB 1/4 WCI   9
BURLINGTON     LGT SNOW  22  20  92 NE14G26   30.00F WCI   9
KENOSHA        SNOW      24  22  91 NE24G33   29.99F VSB 1/4 WCI   8
FOND DU LAC    LGT SNOW  15  11  83 NE21      30.13S FOG     WCI  -2
SHEBOYGAN      LGT SNOW  19  15  84 NE21G29   30.13S VSB 3/4 WCI   3
WEST BEND      LGT SNOW  21  18  86 NE18G28   30.08S WCI   6
JUNEAU         LGT SNOW  16  13  87 N15G23    30.08F WCI   1
$$

LSZ147-162-011600-
LAKE SUPERIOR

STATION/POSITION TIME  TEMP    WIND        PRES    WAVE
                       AIR SEA DIR/SP/G            HT/PER
                 (UTC) (F)     (DEG/KT/KT) (MB)    (FT/S)
DEVILS ISLAND    1400    9      40/ 19/ 22 1031.1R
PORT WING        1400   11      70/ 13/ 17 1028.8R
SAXON HARBOR     1400   10      CALM  /  4 1027.8S
$$

LMZ867-665-643>646-011600-
LAKE MICHIGAN

STATION/POSITION TIME  TEMP    WIND        PRES    WAVE
                       AIR SEA DIR/SP/G            HT/PER
                 (UTC) (F)     (DEG/KT/KT) (MB)    (FT/S)
NORTHPORT PIER   1430   11      40/ 18/ 22 1026.1R
SISTER BAY       1413    9      20/ 14/ 20   N/A
KEWAUNEE LAKESHO 1400   19      50/ 22/ 27 1021.8F
SHEBOYGAN LAKESH 1400   21      60/ 29/ 31 1021.7S
PORT WASHINGTON  1400   24      60/ 20     1020.3S
MILWAUKEE LAKESH 1400   25      60/ 26/ 31   N/A
KENOSHA   LAKESH 1400   27      60/ 28/ 32 1015.9F
$$

TC  - TEMPERATURE IN CELSIUS
VSB - VISIBILITY IN STATUTE MILES
WCI - WIND CHILL INDEX
HX  - HEAT INDEX




USA.gov is the U.S. government's official web portal to all federal, state and local government web resources and services.